Change the Weather History Date:

Tuesday, August 6, 2013

  Actual Average (KHKY) Record (KHKY)
Temperature  
Mean Temperature 71 °F -  
Max Temperature 74 °F 85 °F 97 °F (1956)
Min Temperature 68 °F 67 °F 55 °F (1950)
Cooling Degree Days 6    
Growing Degree Days 21 (Base 50)    
Moisture  
Dew Point 69 °F    
Average Humidity 91    
Maximum Humidity 97    
Minimum Humidity 82    
Precipitation  
Precipitation 0.83 in - - ()
Sea Level Pressure  
Sea Level Pressure 30.05 in    
Wind  
Wind Speed 3 mph (SE)    
Max Wind Speed 7 mph    
Max Gust Speed -    
Visibility 9 miles    
Events Rain    
Averages and records for this station are not official NWS values.
T = Trace of Precipitation, MM = Missing Value Source: NWS Daily Summary

Daily Weather History Graph

Daily Weather History Graph

Search for Another Location

Airport or City:

Trip Planner

Search our weather history database for the weather conditions in past years. The results will help you decide how hot, cold, wet, or windy it might be!

Date:

Astronomy

Aug. 06, 2013 Rise Set
Actual Time 6:39 AM EDT 8:24 PM EDT
Civil Twilight 6:11 AM EDT 8:52 PM EDT
Nautical Twilight 5:38 AM EDT 9:25 PM EDT
Astronomical Twilight 5:03 AM EDT 10:00 PM EDT
Moon 6:27 AM EDT (8/6) 8:02 PM EDT (8/6)
Length of Visible Light 14h 40m
Length of Day
13h 45m
Waning Crescent, 0% of the Moon is Illuminated
Aug 6
Waning Crescent
Aug 6
New
Aug 14
First Quarter
Aug 20
Full
Aug 28
Last Quarter

Hourly Weather History & Observations

Time (EDT) Temp. Dew Point Humidity Pressure Visibility Wind Dir Wind Speed Gust Speed Precip Events Conditions
12:15 AM 73.9 °F 68.0 °F 82% 30.02 in 10.0 mi SSE 4.6 mph - N/A   Clear
12:35 AM 73.8 °F 68.0 °F 82% 30.03 in 10.0 mi Calm Calm - N/A   Mostly Cloudy
12:55 AM 73.2 °F 68.5 °F 85% 30.03 in 4.0 mi Calm Calm - 0.08 in Rain Heavy Rain
1:15 AM 73.0 °F 68.5 °F 86% 30.04 in 10.0 mi South 6.9 mph - 0.01 in   Mostly Cloudy
1:35 AM 72.5 °F 69.4 °F 90% 30.03 in 10.0 mi South 3.5 mph - 0.01 in   Scattered Clouds
1:55 AM 71.6 °F 68.9 °F 91% 30.03 in 10.0 mi SW 3.5 mph - 0.01 in   Mostly Cloudy
2:15 AM 72.5 °F 68.9 °F 88% 30.03 in 10.0 mi South 3.5 mph - N/A   Mostly Cloudy
2:35 AM 71.2 °F 68.0 °F 89% 30.03 in 10.0 mi South 3.5 mph - N/A   Overcast
2:55 AM 71.2 °F 67.6 °F 88% 30.02 in 10.0 mi South 4.6 mph - N/A   Overcast
3:15 AM 70.9 °F 67.5 °F 89% 30.03 in 7.0 mi WNW 6.9 mph - 0.02 in Rain Rain
3:35 AM 69.8 °F 67.6 °F 93% 30.01 in 2.5 mi Calm Calm - 0.26 in Rain Heavy Rain
3:55 AM 69.8 °F 67.1 °F 91% 30.00 in 10.0 mi Calm Calm - 0.29 in Rain Light Rain
4:15 AM 69.8 °F 68.0 °F 94% 30.01 in 4.0 mi WNW 4.6 mph - 0.03 in Rain Rain
4:35 AM 68.9 °F 68.0 °F 97% 30.02 in 2.0 mi Calm Calm - 0.19 in Rain Heavy Rain
4:55 AM 68.9 °F 68.0 °F 97% 30.01 in 2.0 mi Calm Calm - 0.45 in Rain Heavy Rain
5:15 AM 68.7 °F 67.8 °F 97% 30.02 in 7.0 mi Calm Calm - N/A   Overcast
5:35 AM 68.9 °F 67.8 °F 96% 30.02 in 7.0 mi Calm Calm - N/A   Overcast
5:55 AM 68.9 °F 68.0 °F 97% 30.02 in 5.0 mi Calm Calm - N/A Rain Light Rain
6:15 AM 68.7 °F 67.8 °F 97% 30.03 in 7.0 mi ESE 3.5 mph - N/A   Overcast
6:35 AM 68.0 °F 67.1 °F 97% 30.02 in 7.0 mi ESE 3.5 mph - N/A   Mostly Cloudy
6:55 AM 68.0 °F 67.1 °F 97% 30.03 in 7.0 mi Calm Calm - N/A   Overcast
7:15 AM 68.0 °F 67.1 °F 97% 30.04 in 7.0 mi SE 3.5 mph - N/A   Overcast
7:35 AM 68.0 °F 67.1 °F 97% 30.04 in 7.0 mi SE 3.5 mph - N/A   Mostly Cloudy
7:55 AM 68.7 °F 67.5 °F 96% 30.05 in 10.0 mi SE 3.5 mph - N/A   Mostly Cloudy
8:15 AM 68.9 °F 67.5 °F 95% 30.05 in 7.0 mi SE 3.5 mph - N/A   Overcast
8:35 AM 68.9 °F 67.5 °F 95% 30.05 in 7.0 mi ESE 3.5 mph - N/A   Overcast
8:55 AM 68.9 °F 67.6 °F 96% 30.06 in 7.0 mi ESE 3.5 mph - N/A   Overcast
9:15 AM 69.1 °F 67.5 °F 95% 30.06 in 7.0 mi SE 3.5 mph - N/A   Overcast
9:35 AM 69.3 °F 67.6 °F 95% 30.06 in 10.0 mi ESE 3.5 mph - N/A   Overcast
9:55 AM 69.3 °F 67.6 °F 95% 30.07 in 10.0 mi ESE 3.5 mph - N/A   Overcast
10:15 AM 69.8 °F 68.2 °F 95% 30.06 in 10.0 mi SE 4.6 mph - N/A   Overcast
10:35 AM 69.8 °F 68.0 °F 94% 30.07 in 10.0 mi SSE 3.5 mph - N/A   Overcast
10:55 AM 70.2 °F 68.2 °F 93% 30.07 in 10.0 mi SSE 4.6 mph - N/A   Overcast
11:15 AM 70.5 °F 68.2 °F 92% 30.07 in 10.0 mi SE 3.5 mph - N/A   Overcast
11:35 AM 70.7 °F 68.5 °F 93% 30.08 in 10.0 mi SE 3.5 mph - N/A   Overcast
11:55 AM 70.9 °F 68.4 °F 92% 30.08 in 10.0 mi SE 3.5 mph - N/A   Overcast
12:15 PM 71.8 °F 68.9 °F 91% 30.08 in 10.0 mi SE 3.5 mph - N/A   Overcast
12:35 PM 72.1 °F 69.1 °F 90% 30.08 in 10.0 mi SE 3.5 mph - N/A   Overcast
12:55 PM 72.5 °F 69.4 °F 90% 30.08 in 10.0 mi ESE 3.5 mph - N/A   Overcast
1:15 PM 72.3 °F 69.1 °F 89% 30.08 in 10.0 mi SE 3.5 mph - N/A   Overcast
1:35 PM 72.5 °F 69.3 °F 90% 30.07 in 10.0 mi SSE 4.6 mph - N/A   Overcast
1:55 PM 72.5 °F 69.3 °F 90% 30.07 in 10.0 mi SSE 4.6 mph - N/A   Overcast
2:15 PM 72.9 °F 69.3 °F 88% 30.06 in 10.0 mi ESE 4.6 mph - N/A   Overcast
2:35 PM 73.2 °F 69.1 °F 87% 30.06 in 10.0 mi Calm Calm - N/A   Overcast
2:55 PM 72.5 °F 69.1 °F 89% 30.06 in 10.0 mi South 3.5 mph - N/A   Overcast
3:15 PM 72.9 °F 69.1 °F 88% 30.06 in 10.0 mi SSE 4.6 mph - N/A   Overcast
3:35 PM 73.4 °F 69.1 °F 86% 30.06 in 10.0 mi Calm Calm - N/A   Overcast
3:55 PM 73.8 °F 69.8 °F 87% 30.05 in 10.0 mi SSE 4.6 mph - N/A   Overcast
4:15 PM 72.5 °F 69.1 °F 89% 30.05 in 10.0 mi Calm Calm - N/A   Overcast
4:35 PM 73.0 °F 69.6 °F 89% 30.05 in 10.0 mi ESE 3.5 mph - N/A   Overcast
4:55 PM 73.4 °F 69.8 °F 88% 30.05 in 10.0 mi ESE 3.5 mph - N/A   Overcast
5:15 PM 73.4 °F 69.8 °F 88% 30.05 in 10.0 mi East 4.6 mph - N/A   Overcast
5:35 PM 74.3 °F 70.3 °F 87% 30.05 in 10.0 mi East 3.5 mph - N/A   Overcast
5:55 PM 73.4 °F 69.6 °F 88% 30.05 in 7.0 mi ESE 4.6 mph - N/A   Overcast
6:15 PM 73.2 °F 69.6 °F 88% 30.05 in 10.0 mi SE 5.8 mph - N/A   Overcast
6:35 PM 72.5 °F 69.1 °F 89% 30.06 in 10.0 mi SE 4.6 mph - N/A   Overcast
6:55 PM 72.5 °F 69.4 °F 90% 30.06 in 10.0 mi SSE 3.5 mph - N/A   Overcast
7:15 PM 72.5 °F 69.1 °F 89% 30.06 in 10.0 mi SSE 3.5 mph - N/A   Overcast
7:35 PM 72.5 °F 69.4 °F 90% 30.05 in 10.0 mi SE 3.5 mph - N/A   Overcast
7:55 PM 72.5 °F 69.4 °F 90% 30.05 in 10.0 mi Calm Calm - N/A   Overcast
8:15 PM 72.5 °F 69.3 °F 90% 30.05 in 10.0 mi ESE 3.5 mph - N/A   Overcast
8:35 PM 72.5 °F 69.4 °F 90% 30.06 in 10.0 mi Calm Calm - N/A   Overcast
8:55 PM 72.5 °F 69.4 °F 90% 30.07 in 10.0 mi Calm Calm - N/A   Overcast
9:15 PM 72.3 °F 69.8 °F 92% 30.07 in 10.0 mi Calm Calm - N/A   Overcast
9:35 PM 72.3 °F 70.0 °F 92% 30.08 in 10.0 mi Calm Calm - N/A   Overcast
9:55 PM 71.8 °F 69.8 °F 93% 30.08 in 10.0 mi Calm Calm - N/A   Overcast
10:15 PM 72.3 °F 70.0 °F 92% 30.08 in 10.0 mi Calm Calm - N/A   Overcast
10:35 PM 72.0 °F 69.8 °F 93% 30.08 in 10.0 mi SE 3.5 mph - N/A   Overcast
10:55 PM 72.1 °F 70.0 °F 93% 30.09 in 10.0 mi Calm Calm - N/A   Overcast
11:15 PM 72.1 °F 70.0 °F 93% 30.09 in 10.0 mi Calm Calm - N/A   Overcast
11:35 PM 71.6 °F 69.3 °F 92% 30.09 in 10.0 mi Calm Calm - N/A   Overcast
11:55 PM 71.2 °F 69.4 °F 94% 30.08 in 10.0 mi Calm Calm - N/A   Overcast